User: anonymous   Login
Location: Unspecified
(0.0000°N, 0.0000°E)
Time: 00:24:24
(UTC+00:00)
Language:

SAR-Lupe-3 - Orbit

View from above orbital plane
View from above orbital plane
View from above satellite
View from above satellite

Ground track
Ground track

The orbit data is extracted from the following two-line orbital elements,

1 32283U 07053A   17086.14748012 0.00000000  00000-0  00000-0 0    05
2 32283  98.1473 257.0441 0002000 135.4951 224.5047 15.27128877    07
Epoch (UTC): 27 March 2017 03:32:22
Eccentricity: 0.0002000
inclination: 98.1473°
perigee height: 483 km
apogee height: 486 km
right ascension of ascending node: 257.0441°
argument of perigee: 135.4951°
revolutions per day: 15.27128877
mean anomaly at epoch: 224.5047°
orbit number at epoch: 0

The dashed part of the orbit path shows where the satellite is in the earth's shadow,  

DLR